Date_and_time,latitude,longitude,wind_speed,RelWindDirFrom,WindDirFrom,air_pressure,air_temperature,relative_humidity,Temp,platform_speed_wrt_ground,air_pressure_at_mean_sea_level,platform_orientation
2018-08-10 00:00,52.7959466666667,-97.56247,8.6,10.4,188,985.48,23.8,88,22.22,0.0,1011.06,30.0
2018-08-10 00:10,52.7958216666667,-97.5624766666667,8.7,10.5,189,985.49,23.6,90,22.19,0.0,1011.06,30.0
2018-08-10 00:20,52.7963033333333,-97.5993766666667,13.1,16.1,228,985.27,23.2,89,22.15,8.0,1010.83,30.0
2018-08-10 00:30,52.815235,-97.6178183333333,6.0,16.2,240,985.41,23.2,83,21.78,7.9,1010.97,30.0
2018-08-10 00:40,52.8178733333333,-97.6188,7.9,10.5,197,985.40,22.8,84,21.76,1.0,1010.97,30.0
2018-08-10 00:50,52.8178983333333,-97.6189616666667,9.5,11.1,195,985.24,22.4,85,21.34,0.0,1010.81,30.0
2018-08-10 01:00,52.8179,-97.6189683333333,9.9,11.0,196,985.24,22.4,84,21.55,0.0,1010.81,19.9
2018-08-10 01:10,52.8178966666667,-97.6189683333333,9.9,11.0,196,985.14,22.4,83,21.44,0.0,1010.71,19.9
2018-08-10 01:20,52.8178966666667,-97.6189666666667,10.1,11.4,201,985.20,22.3,85,21.31,0.0,1010.76,19.9
2018-08-10 01:30,52.8178966666667,-97.6189666666667,10.5,11.9,205,985.21,22.1,91,21.21,0.0,1010.81,19.9
2018-08-10 01:40,52.8178966666667,-97.618965,11.1,12.4,206,985.17,22.0,91,21.21,0.0,1010.78,19.9
2018-08-10 01:50,52.8178916666667,-97.6189516666667,10.4,11.5,205,985.13,22.0,89,21.25,0.0,1010.74,19.9
2018-08-10 02:00,52.8178866666667,-97.6189566666667,10.8,11.9,204,985.12,22.0,87,21.28,0.0,1010.74,331.0
2018-08-10 02:10,52.8178866666667,-97.6189633333333,11.0,12.3,205,985.13,21.9,86,21.26,0.0,1010.77,331.0
2018-08-10 02:20,52.8178883333333,-97.61896,11.1,12.3,204,985.11,22.0,83,21.24,0.0,1010.75,331.0
2018-08-10 02:30,52.8178866666667,-97.61896,11.6,12.5,203,985.09,22.0,81,21.25,0.0,1010.75,331.0
2018-08-10 02:40,52.8178866666667,-97.6189616666667,11.3,12.9,204,985.04,22.0,79,21.28,0.0,1010.71,331.0
2018-08-10 02:50,52.81786,-97.6189733333333,11.1,12.3,207,985.07,22.1,78,21.26,0.0,1010.74,331.0
2018-08-10 03:00,52.8178816666667,-97.6189616666667,11.6,12.7,206,985.00,22.1,78,21.30,0.0,1010.67,302.7
2018-08-10 03:10,52.817885,-97.6189616666667,11.5,12.9,204,984.96,22.0,81,21.29,0.0,1010.64,302.7
2018-08-10 03:20,52.81789,-97.6189616666667,11.5,12.7,204,984.92,21.8,85,21.34,0.0,1010.61,302.7
2018-08-10 03:30,52.8178883333333,-97.6189616666667,11.4,13.1,206,984.91,21.7,85,21.35,0.0,1010.61,302.7
2018-08-10 03:40,52.81789,-97.61896,11.8,13.4,207,984.89,21.7,84,21.37,0.0,1010.59,302.7
2018-08-10 03:50,52.8178916666667,-97.6189616666667,11.7,13.0,208,984.81,21.8,83,21.42,0.0,1010.51,302.7
2018-08-10 04:00,52.8178916666667,-97.6189633333333,12.3,13.7,208,984.73,21.9,83,21.44,0.0,1010.42,360.0
2018-08-10 04:10,52.8178933333333,-97.6189616666667,12.3,14.1,208,984.73,21.9,82,21.44,0.0,1010.41,360.0
2018-08-10 04:20,52.8178933333333,-97.6189616666667,12.6,14.2,206,984.69,21.8,84,21.44,0.0,1010.37,360.0
2018-08-10 04:30,52.8178916666667,-97.6189616666667,12.5,14.6,212,984.70,21.8,83,21.46,0.0,1010.38,360.0
2018-08-10 04:40,52.8178916666667,-97.6189616666667,11.3,13.1,213,984.64,21.7,85,21.45,0.0,1010.33,360.0
2018-08-10 04:50,52.8178916666667,-97.6189616666667,10.9,13.5,216,984.64,21.7,84,21.47,0.0,1010.33,360.0
2018-08-10 05:00,52.8178916666667,-97.6189616666667,11.2,12.9,219,984.62,21.8,83,21.45,0.0,1010.31,360.0
2018-08-10 05:10,52.8178916666667,-97.6189616666667,9.3,11.8,224,984.57,21.7,83,21.48,0.0,1010.28,360.0
2018-08-10 05:20,52.8178916666667,-97.6189633333333,7.2,9.7,231,984.55,21.6,84,21.49,0.0,1010.26,360.0
2018-08-10 05:30,52.81789,-97.6189633333333,7.6,11.0,231,984.53,21.5,84,21.49,0.0,1010.24,360.0
2018-08-10 05:40,52.81789,-97.6189633333333,8.1,13.0,235,984.42,21.7,82,21.50,0.0,1010.12,360.0
2018-08-10 05:50,52.81789,-97.6189633333333,8.7,12.8,235,984.38,21.7,81,21.49,0.0,1010.07,360.0
2018-08-10 06:00,52.81789,-97.6189633333333,8.6,13.2,234,984.33,21.8,81,21.48,0.0,1010.02,34.2
2018-08-10 06:10,52.81789,-97.6189633333333,8.8,13.7,234,984.23,21.6,82,21.48,0.0,1009.92,34.2
2018-08-10 06:20,52.8178883333333,-97.6189633333333,9.2,13.6,234,984.21,21.6,81,21.47,0.0,1009.90,34.2
2018-08-10 06:30,52.8178883333333,-97.6189633333333,8.8,12.7,231,984.19,21.5,82,21.46,0.0,1009.89,34.2
2018-08-10 06:40,52.8178883333333,-97.618965,8.9,13.7,234,984.15,21.5,81,21.45,0.0,1009.85,34.2
2018-08-10 06:50,52.8178883333333,-97.618965,8.7,14.2,233,984.07,21.5,81,21.43,0.0,1009.76,34.2
2018-08-10 07:00,52.8178883333333,-97.618965,9.1,13.8,233,984.01,21.4,83,21.43,0.0,1009.71,0.0
2018-08-10 07:10,52.8178883333333,-97.618965,9.1,13.1,234,984.00,21.3,83,21.42,0.0,1009.71,0.0
2018-08-10 07:20,52.8178883333333,-97.618965,8.5,14.7,234,983.95,21.4,82,21.41,0.0,1009.66,0.0
2018-08-10 07:30,52.8178883333333,-97.618965,8.5,14.2,237,983.97,21.5,80,21.40,0.0,1009.66,0.0
2018-08-10 07:40,52.8178883333333,-97.618965,8.9,15.9,236,983.87,21.7,78,21.39,0.0,1009.55,0.0
2018-08-10 07:50,52.8178883333333,-97.618965,8.7,14.7,236,983.75,21.6,78,21.38,0.0,1009.43,0.0
2018-08-10 08:00,52.8178883333333,-97.6189633333333,8.9,15.3,237,983.68,21.5,79,21.37,0.0,1009.37,0.0
2018-08-10 08:10,52.81789,-97.61896,8.1,15.1,238,983.67,21.6,78,21.37,0.0,1009.36,0.0
2018-08-10 08:20,52.81789,-97.6189566666667,7.9,14.4,242,983.66,21.6,78,21.36,0.0,1009.35,0.0
2018-08-10 08:30,52.8178916666667,-97.6189583333333,7.7,12.3,244,983.54,21.5,78,21.36,0.0,1009.24,0.0
2018-08-10 08:40,52.817895,-97.6189466666667,8.0,13.2,243,983.44,21.6,77,21.35,0.0,1009.13,0.0
2018-08-10 08:50,52.8179,-97.6189766666667,7.8,13.3,247,983.46,21.5,78,21.34,0.0,1009.15,0.0
2018-08-10 09:00,52.81788,-97.618965,7.6,12.3,246,983.46,21.5,77,21.33,0.0,1009.16,360.0
2018-08-10 09:10,52.8179216666667,-97.6189633333333,7.8,12.7,247,983.45,21.4,78,21.32,0.0,1009.15,360.0
2018-08-10 09:20,52.817895,-97.6189633333333,7.9,13.6,247,983.43,21.3,79,21.32,0.0,1009.13,360.0
2018-08-10 09:30,52.817895,-97.6189616666667,7.6,12.2,248,983.45,21.2,80,21.32,0.0,1009.15,360.0
2018-08-10 09:40,52.817895,-97.6189566666667,7.8,12.8,250,983.49,21.2,79,21.31,0.0,1009.19,360.0
2018-08-10 09:50,52.817895,-97.61896,7.6,12.8,248,983.48,21.1,81,21.30,0.0,1009.19,360.0
2018-08-10 10:00,52.8178933333333,-97.6189633333333,7.5,12.3,249,983.43,20.9,82,21.28,0.0,1009.15,360.0
2018-08-10 10:10,52.8178933333333,-97.6189633333333,7.8,12.8,250,983.41,20.9,83,21.27,0.0,1009.13,360.0
2018-08-10 10:20,52.8178933333333,-97.6189666666667,7.9,12.9,249,983.40,20.8,84,21.27,0.0,1009.12,360.0
2018-08-10 10:30,52.8179016666667,-97.61896,8.4,13.4,250,983.38,20.8,83,21.27,0.0,1009.09,360.0
2018-08-10 10:40,52.817895,-97.6189533333333,7.7,12.8,251,983.32,20.9,82,21.26,0.0,1009.03,360.0
2018-08-10 10:50,52.81789,-97.61896,6.7,11.7,251,983.24,20.9,82,21.26,0.0,1008.95,360.0
2018-08-10 11:00,52.8178866666667,-97.6189616666667,5.9,12.6,253,983.24,20.9,82,21.25,0.0,1008.96,360.0
2018-08-10 11:10,52.8177533333333,-97.6188533333333,6.6,11.1,252,983.29,20.8,83,21.25,0.1,1009.02,360.0
2018-08-10 11:20,52.81158,-97.606335,10.6,18.8,250,983.10,21.0,85,20.98,3.5,1008.82,360.0
2018-08-10 11:30,52.8352133333333,-97.572715,10.6,14.6,306,983.28,21.0,82,20.43,11.2,1009.00,360.0
2018-08-10 11:40,52.8589133333333,-97.53969,10.9,12.5,314,983.36,20.9,86,20.37,11.2,1009.09,360.0
2018-08-10 11:50,52.882935,-97.5075266666667,10.8,12.4,320,983.46,20.8,88,20.46,11.1,1009.21,360.0
2018-08-10 12:00,52.9006566666667,-97.476505,9.1,12.9,314,983.50,20.8,88,20.56,9.3,1009.25,46.0
2018-08-10 12:10,52.8909766666667,-97.4442066666667,4.6,6.3,254,983.57,22.2,82,20.60,7.8,1009.27,46.0
2018-08-10 12:20,52.88874,-97.4361133333333,10.4,13.8,283,983.51,23.1,78,20.63,1.9,1009.17,46.0
2018-08-10 12:30,52.8887633333333,-97.43613,11.6,12.7,287,983.49,21.2,89,20.67,0.0,1009.23,46.0
2018-08-10 12:40,52.888755,-97.436115,11.4,12.7,290,983.60,21.0,90,20.69,0.0,1009.35,46.0
2018-08-10 12:50,52.8887383333333,-97.43615,11.3,12.8,297,983.66,21.1,89,20.69,0.0,1009.41,46.0
2018-08-10 13:00,52.8887016666667,-97.4361783333333,11.6,13.0,299,983.66,21.1,89,20.69,0.0,1009.41,57.2
2018-08-10 13:10,52.8887266666667,-97.4361583333333,10.8,12.8,303,983.77,21.1,90,20.69,0.0,1009.51,57.2
2018-08-10 13:20,52.8886583333333,-97.4361666666667,10.0,11.4,301,983.86,21.0,92,20.68,0.0,1009.61,57.2
2018-08-10 13:30,52.8887183333333,-97.436135,10.3,11.9,302,983.86,21.0,92,20.68,0.0,1009.61,57.2
2018-08-10 13:40,52.8886616666667,-97.436175,10.7,12.1,307,983.91,21.0,93,20.68,0.0,1009.66,57.2
2018-08-10 13:50,52.8898133333333,-97.4406116666667,11.3,17.1,311,983.98,21.0,93,20.68,1.0,1009.74,57.2
2018-08-10 14:00,52.89866,-97.4712516666667,18.6,20.3,303,983.55,20.9,94,20.62,7.4,1009.24,47.8
2018-08-10 14:10,52.9010933333333,-97.5126516666667,20.2,23.1,301,983.70,20.9,94,20.60,9.0,1009.35,47.8
2018-08-10 14:20,52.8988933333333,-97.5629983333333,21.1,23.0,296,983.74,20.8,95,20.50,11.0,1009.48,47.8
2018-08-10 14:30,52.907475,-97.6047816666667,20.8,22.5,304,983.78,20.7,96,20.42,9.6,1009.54,47.8
2018-08-10 14:40,52.9329616666667,-97.6321383333333,21.0,22.3,321,983.73,20.5,97,20.40,10.9,1009.49,47.8
2018-08-10 14:50,52.95864,-97.6588783333333,20.7,23.4,323,983.73,20.5,97,20.40,10.9,1009.49,47.8
2018-08-10 15:00,52.9843533333333,-97.68521,20.2,21.8,322,983.83,20.5,98,20.42,10.9,1009.59,303.7
2018-08-10 15:10,52.9966266666667,-97.7011583333333,16.3,22.5,313,984.15,20.5,98,20.31,5.6,1009.93,303.7
2018-08-10 15:20,53.002475,-97.70563,12.6,14.5,311,984.45,20.3,99,20.23,2.3,1010.24,303.7
2018-08-10 15:30,53.0094566666667,-97.70602,12.1,14.0,310,984.70,20.2,99,20.19,2.5,1010.50,303.7
2018-08-10 15:40,53.01684,-97.7003833333333,10.5,12.0,310,984.93,20.2,99,20.17,2.9,1010.74,303.7
2018-08-10 15:50,53.0261366666667,-97.6996633333333,11.4,13.9,309,984.73,20.2,99,20.24,3.4,1010.54,303.7
2018-08-10 16:00,53.02601,-97.6991716666667,9.9,11.5,302,984.75,20.4,99,20.29,0.1,1010.55,311.0
2018-08-10 16:10,53.0260066666667,-97.6991633333333,9.3,11.3,301,984.85,20.5,98,20.30,0.0,1010.65,311.0
2018-08-10 16:20,53.0260633333333,-97.699605,9.8,11.4,300,984.97,20.5,98,20.34,0.1,1010.78,311.0
2018-08-10 16:30,53.0508,-97.6931533333333,14.8,17.5,332,984.72,20.3,99,20.34,9.0,1010.53,311.0
2018-08-10 16:40,53.0807483333333,-97.683495,16.0,17.1,335,984.70,20.2,99,20.35,11.0,1010.52,311.0
2018-08-10 16:50,53.1105466666667,-97.672605,15.7,16.8,338,984.68,20.3,99,20.32,11.0,1010.51,311.0
2018-08-10 17:00,53.1402216666667,-97.661275,16.6,18.1,340,984.66,20.3,99,20.28,11.0,1010.48,334.8
2018-08-10 17:10,53.1669733333333,-97.6484816666667,15.7,17.7,342,984.80,20.4,99,20.33,10.0,1010.63,334.8
2018-08-10 17:20,53.1744633333333,-97.6448766666667,10.0,11.5,317,985.22,20.5,98,20.51,2.8,1011.06,334.8
2018-08-10 17:30,53.1823933333333,-97.6408783333333,9.5,10.8,318,985.26,20.6,98,20.61,3.0,1011.10,334.8
2018-08-10 17:40,53.1902033333333,-97.636755,9.2,10.5,322,985.35,20.6,98,20.63,2.9,1011.19,334.8
2018-08-10 17:50,53.1994283333333,-97.633865,8.8,10.6,330,985.30,20.8,97,20.67,3.4,1011.12,334.8
2018-08-10 18:00,53.1995433333333,-97.633655,6.5,8.0,319,985.38,21.1,97,20.66,0.1,1011.19,8.2
2018-08-10 18:10,53.1995583333333,-97.6335966666667,6.0,7.0,315,985.44,21.1,96,20.67,0.0,1011.24,8.2
2018-08-10 18:20,53.1995233333333,-97.6336566666667,6.1,7.5,306,985.50,21.2,96,20.81,0.0,1011.31,8.2
2018-08-10 18:30,53.1952516666667,-97.6627616666667,10.5,14.2,286,985.27,21.2,96,20.88,6.5,1011.08,8.2
2018-08-10 18:40,53.1887266666667,-97.7130833333333,12.7,13.8,280,985.13,21.1,97,20.74,11.1,1010.94,8.2
2018-08-10 18:50,53.18147,-97.7629916666667,13.7,14.7,279,985.05,21.2,97,20.70,11.1,1010.85,8.2
2018-08-10 19:00,53.176795,-97.7838516666667,9.9,14.1,286,985.34,21.3,96,20.68,4.8,1011.14,341.4
2018-08-10 19:10,53.1752166666667,-97.7974483333333,8.6,9.3,280,985.40,21.3,96,20.53,3.0,1011.20,341.4
2018-08-10 19:20,53.1736966666667,-97.8118583333333,8.4,9.1,263,985.41,21.3,96,20.52,3.2,1011.20,341.4
2018-08-10 19:30,53.17223,-97.8255383333333,8.0,8.7,258,985.44,21.2,98,20.59,3.0,1011.23,341.4
2018-08-10 19:40,53.1705033333333,-97.8384733333333,6.5,8.5,268,985.46,21.3,97,20.63,2.9,1011.25,341.4
2018-08-10 19:50,53.1705233333333,-97.83805,3.7,5.3,278,985.51,21.7,93,20.56,0.1,1011.27,341.4
2018-08-10 20:00,53.170535,-97.8379983333333,5.6,6.6,271,985.52,21.8,93,20.18,0.0,1011.27,286.0
2018-08-10 20:10,53.1705383333333,-97.8380066666667,6.0,7.2,269,985.52,21.8,93,20.09,0.0,1011.27,286.0
2018-08-10 20:20,53.1705266666667,-97.8380033333333,5.9,6.9,272,985.49,22.0,91,20.07,0.0,1011.23,286.0
2018-08-10 20:30,53.1773266666667,-97.8642733333333,12.5,17.5,284,985.11,22.2,86,20.23,6.2,1010.83,286.0
2018-08-10 20:40,53.1932483333333,-97.908675,16.4,17.3,291,984.93,22.5,81,20.59,11.2,1010.63,286.0
2018-08-10 20:50,53.2093016666667,-97.953135,14.3,15.7,295,984.97,22.8,78,20.56,11.2,1010.66,286.0
2018-08-10 21:00,53.2252066666667,-97.99788,11.5,12.5,293,985.04,22.8,83,20.64,11.2,1010.72,276.9
2018-08-10 21:10,53.2413466666667,-98.0422033333333,11.9,12.3,288,985.04,22.6,88,20.64,11.2,1010.73,276.9
2018-08-10 21:20,53.2579883333333,-98.0861183333333,12.0,12.5,286,984.97,23.2,78,20.51,11.2,1010.64,276.9
2018-08-10 21:30,53.2750766666667,-98.1296233333333,10.7,11.3,278,985.03,23.4,81,20.53,11.2,1010.69,276.9
2018-08-10 21:40,53.2922016666667,-98.1731966666667,8.8,9.6,272,985.07,23.2,91,20.63,11.2,1010.72,276.9
2018-08-10 21:50,53.30936,-98.216735,9.0,11.2,269,985.07,23.3,92,20.52,11.2,1010.71,276.9
2018-08-10 22:00,53.326545,-98.2600316666667,11.0,11.4,262,985.00,23.5,92,20.59,11.2,1010.63,297.9
2018-08-10 22:10,53.34316,-98.3040016666667,10.8,11.7,264,985.03,23.6,93,20.47,11.2,1010.65,297.9
2018-08-10 22:20,53.3537483333333,-98.335615,8.2,11.1,252,985.11,23.9,87,20.77,7.8,1010.71,297.9
2018-08-10 22:30,53.3593316666667,-98.34624,5.3,6.4,227,985.30,24.0,87,21.51,3.0,1010.88,297.9
2018-08-10 22:40,53.3642116666667,-98.3572166666667,5.3,5.8,233,985.26,24.0,86,22.38,2.9,1010.83,297.9
2018-08-10 22:50,53.3680683333333,-98.3690483333333,6.5,7.5,233,985.27,24.3,81,22.60,2.9,1010.83,297.9
2018-08-10 23:00,53.370595,-98.3816083333333,6.7,7.2,230,985.33,24.4,81,22.51,2.8,1010.89,301.8
2018-08-10 23:10,53.3752483333333,-98.3878283333333,5.3,6.3,228,985.28,24.6,76,22.21,2.1,1010.81,301.8
2018-08-10 23:20,53.37522,-98.3877483333333,5.4,5.9,205,985.25,24.7,75,21.62,0.0,1010.76,301.8
2018-08-10 23:30,53.3752366666667,-98.387815,5.5,6.7,194,985.18,24.7,76,20.87,0.0,1010.70,301.8
